Flag for United Kingdom Weather past 2 weeks in Cardiff, Wales, United Kingdom

Now
63 °F

Passing clouds.


Feels Like: 63 °F
Forecast: 51 / 64 °F
Wind: 9 mph from East

Location: Wales Airport

Current Time: Aug 30, 2015 at 3:29:31 PM

Latest Report: Aug 30, 2015 at 2:50 PM


Visibility: N/A

Pressure: 30.07 "Hg

Humidity: 83%

Dew point: 57 °F

Location of CardiffLocation

Historic Weather in Cardiff — Graph

°F

Cardiff temperature yesterday

Maximum temperature yesterday: 68 °F (at 1:20 PM)
Minimum temperature yesterday: 55 °F (at 11:20 PM)
Average temperature yesterday: 61 °F

Past Weeks' High & Low Weather Summary

 TemperatureHumidityPressure
High75 °F (Aug 22, 3:20 PM)100% (Aug 19, 11:50 AM)30.12 "Hg (Aug 19, 11:50 AM)
Low50 °F (Aug 17, 2:50 AM)40% (Aug 17, 2:20 PM)29.50 "Hg (Aug 24, 4:50 AM)
Average61 °F84%29.89 "Hg
* Reported Aug 15 2:20 PM — Aug 30 2:20 PM, Cardiff, Weather by CustomWeather, © 2015

Note: Actual official high and low records may vary slightly from our data, if they occured in-between our weather recording intervals... More about our weather records

Advertising

Cardiff weather history for previous 24 hours

 ConditionsComfort  
Time TempWeatherWind HumidityBarometerVisibility
2:20 PM
Sun, Aug 30
63 °FPassing clouds.10 mph83%30.07 "HgN/A
1:50 PM61 °FScattered clouds.9 mph88%30.07 "HgN/A
1:20 PM61 °FScattered clouds.9 mph88%30.07 "HgN/A
12:50 PM59 °FLight rain. Scattered clouds.6 mph94%30.09 "HgN/A
12:20 PM61 °FLight rain. Scattered clouds.3 mph88%30.09 "Hg5 mi
11:50 AM59 °FLight rain. Partly sunny.7 mph94%30.09 "HgN/A
11:20 AM61 °FLight rain. Scattered clouds.6 mph83%30.09 "HgN/A
10:50 AM61 °FCool.8 mph83%30.07 "HgN/A
10:20 AM61 °FPartly sunny.8 mph77%30.07 "HgN/A
9:50 AM59 °FPartly sunny.10 mph82%30.07 "HgN/A
9:20 AM59 °FPartly sunny.7 mph82%30.07 "HgN/A
8:50 AM59 °FPartly sunny.8 mph77%30.07 "HgN/A
8:20 AM59 °FOvercast.7 mph77%30.07 "HgN/A
7:50 AM57 °FPassing clouds.8 mph77%30.07 "HgN/A
7:20 AM57 °FPassing clouds.6 mph77%30.07 "HgN/A
6:50 AM57 °FClear.5 mph77%30.07 "Hg10 mi
6:20 AM55 °FClear.6 mph82%30.07 "Hg10 mi
5:50 AM55 °FCool.3 mph82%30.07 "HgN/A
5:20 AM55 °FClear.5 mph82%30.07 "Hg10 mi
4:50 AM55 °FCool.5 mph82%30.07 "HgN/A
4:20 AM55 °FClear.5 mph82%30.07 "Hg10 mi
3:50 AM55 °FCool.5 mph82%30.07 "HgN/A
3:20 AM57 °FCool.3 mph77%30.07 "HgN/A
2:50 AM59 °FClear.3 mph72%30.07 "Hg10 mi
2:20 AM57 °FClear.2 mph77%30.07 "Hg10 mi
1:50 AM57 °FPassing clouds.5 mph77%30.09 "HgN/A
1:20 AM57 °FClear.6 mph77%30.09 "Hg10 mi
12:50 AM55 °FCool.7 mph82%30.09 "HgN/A
12:20 AM55 °FClear.7 mph82%30.09 "Hg10 mi
11:50 PM
Sat, Aug 29
55 °FCool.7 mph82%30.09 "HgN/A
11:20 PM55 °FClear.6 mph88%30.09 "Hg10 mi
10:20 PM57 °FCool.5 mph77%30.09 "HgN/A
9:50 PM59 °FCool.6 mph72%30.09 "HgN/A
9:20 PM59 °FPassing clouds.6 mph72%30.09 "HgN/A
8:50 PM59 °FScattered clouds.6 mph72%30.09 "HgN/A
8:20 PM61 °FScattered clouds.5 mph68%30.09 "HgN/A
7:50 PM61 °FScattered clouds.7 mph68%30.07 "HgN/A
7:20 PM63 °FScattered clouds.7 mph68%30.07 "HgN/A
6:50 PM64 °FPassing clouds.6 mph64%30.07 "HgN/A
6:20 PM66 °FPartly sunny.3 mph56%30.07 "HgN/A
5:50 PM66 °FPartly sunny.6 mph52%30.07 "HgN/A
5:20 PM66 °FPassing clouds.5 mph56%30.07 "HgN/A
4:50 PM66 °FPassing clouds.6 mph52%30.09 "HgN/A
4:20 PM68 °FPassing clouds.6 mph53%30.09 "HgN/A
3:50 PM66 °FPassing clouds.5 mph60%30.09 "HgN/A
3:20 PM66 °FPassing clouds.3 mph60%30.09 "HgN/A
Weather by CustomWeather, © 2015

See weather overviewHow to use our weather pages